TimeEDT,TemperatureF,Dew PointF,Humidity,Sea Level PressureIn,VisibilityMPH,Wind Direction,Wind SpeedMPH,Gust SpeedMPH,PrecipitationIn,Events,Conditions,WindDirDegrees,DateUTC
12:15 AM,66.2,62.6,88,30.24,10.0,ENE,4.6,-,N/A,,Clear,70,2012-10-13 04:15:00
12:35 AM,66.2,62.6,88,30.24,10.0,East,5.8,-,N/A,,Clear,90,2012-10-13 04:35:00
12:55 AM,64.4,62.6,94,30.24,10.0,East,5.8,-,N/A,,Clear,80,2012-10-13 04:55:00
1:15 AM,64.4,62.6,94,30.24,10.0,East,5.8,-,N/A,,Clear,80,2012-10-13 05:15:00
1:35 AM,64.4,62.6,94,30.24,10.0,ENE,4.6,-,N/A,,Clear,70,2012-10-13 05:35:00
2:15 AM,62.6,62.6,100,30.24,10.0,ENE,3.5,-,N/A,,Clear,70,2012-10-13 06:15:00
3:15 AM,62.6,62.6,100,30.24,10.0,ENE,3.5,-,N/A,,Clear,70,2012-10-13 07:15:00
3:35 AM,62.6,62.6,100,30.24,10.0,ENE,4.6,-,N/A,,Clear,70,2012-10-13 07:35:00
4:35 AM,60.8,60.8,100,30.25,10.0,ENE,4.6,-,N/A,,Clear,70,2012-10-13 08:35:00
4:55 AM,60.8,60.8,100,30.26,10.0,ENE,5.8,-,N/A,,Clear,70,2012-10-13 08:55:00
5:15 AM,60.8,60.8,100,30.27,10.0,ENE,6.9,-,N/A,,Clear,60,2012-10-13 09:15:00
5:35 AM,60.8,60.8,100,30.27,10.0,ENE,5.8,-,N/A,,Mostly Cloudy,70,2012-10-13 09:35:00
6:35 AM,60.8,60.8,100,30.30,10.0,ENE,4.6,-,N/A,,Mostly Cloudy,70,2012-10-13 10:35:00
6:55 AM,60.8,60.8,100,30.30,10.0,East,5.8,-,N/A,,Scattered Clouds,80,2012-10-13 10:55:00
7:15 AM,59.0,59.0,100,30.31,10.0,ENE,4.6,-,N/A,,Clear,70,2012-10-13 11:15:00
7:35 AM,59.0,59.0,100,30.32,10.0,ENE,3.5,-,N/A,,Clear,60,2012-10-13 11:35:00
7:55 AM,59.0,59.0,100,30.32,10.0,ENE,3.5,-,N/A,,Clear,60,2012-10-13 11:55:00
8:15 AM,59.0,59.0,100,30.33,10.0,ENE,4.6,-,N/A,,Clear,60,2012-10-13 12:15:00
8:55 AM,60.8,59.0,94,30.34,10.0,ENE,4.6,-,N/A,,Clear,70,2012-10-13 12:55:00
9:15 AM,62.6,59.0,88,30.34,10.0,ENE,5.8,-,N/A,,Clear,70,2012-10-13 13:15:00
9:35 AM,62.6,59.0,88,30.35,10.0,ENE,6.9,-,N/A,,Clear,70,2012-10-13 13:35:00
10:15 AM,66.2,59.0,78,30.36,10.0,East,6.9,-,N/A,,Clear,90,2012-10-13 14:15:00
10:35 AM,68.0,59.0,73,30.36,10.0,East,9.2,-,N/A,,Clear,90,2012-10-13 14:35:00
10:55 AM,69.8,59.0,68,30.36,10.0,East,9.2,-,N/A,,Clear,80,2012-10-13 14:55:00
11:15 AM,69.8,59.0,68,30.36,10.0,ESE,8.1,-,N/A,,Clear,110,2012-10-13 15:15:00
11:55 AM,73.4,59.0,61,30.36,10.0,ENE,8.1,-,N/A,,Clear,60,2012-10-13 15:55:00
12:35 PM,73.4,60.8,65,30.34,10.0,East,10.4,-,N/A,,Clear,100,2012-10-13 16:35:00
12:55 PM,75.2,60.8,61,30.34,10.0,ESE,11.5,16.1,N/A,,Scattered Clouds,110,2012-10-13 16:55:00
1:15 PM,73.4,60.8,65,30.33,10.0,ESE,10.4,-,N/A,,Scattered Clouds,120,2012-10-13 17:15:00
1:35 PM,77.0,60.8,57,30.32,10.0,East,9.2,-,N/A,,Scattered Clouds,100,2012-10-13 17:35:00
1:55 PM,77.0,60.8,57,30.30,10.0,ESE,8.1,-,N/A,,Scattered Clouds,110,2012-10-13 17:55:00
2:15 PM,77.0,60.8,57,30.30,10.0,SE,6.9,-,N/A,,Scattered Clouds,130,2012-10-13 18:15:00
2:55 PM,77.0,59.0,54,30.28,10.0,ESE,6.9,-,N/A,,Scattered Clouds,110,2012-10-13 18:55:00
3:15 PM,77.0,59.0,54,30.27,10.0,East,8.1,-,N/A,,Mostly Cloudy,90,2012-10-13 19:15:00
3:35 PM,77.0,59.0,54,30.27,10.0,East,9.2,-,N/A,,Mostly Cloudy,80,2012-10-13 19:35:00
3:55 PM,77.0,59.0,54,30.26,10.0,East,9.2,-,N/A,,Scattered Clouds,100,2012-10-13 19:55:00
4:15 PM,75.2,59.0,57,30.26,10.0,SE,6.9,-,N/A,,Mostly Cloudy,130,2012-10-13 20:15:00
4:35 PM,78.8,59.0,51,30.25,10.0,SE,5.8,-,N/A,,Mostly Cloudy,130,2012-10-13 20:35:00
4:55 PM,77.0,59.0,54,30.26,10.0,ESE,6.9,-,N/A,,Scattered Clouds,120,2012-10-13 20:55:00
5:15 PM,77.0,60.8,57,30.26,10.0,East,6.9,-,N/A,,Scattered Clouds,100,2012-10-13 21:15:00
5:55 PM,75.2,60.8,61,30.26,10.0,East,6.9,-,N/A,,Scattered Clouds,90,2012-10-13 21:55:00
6:15 PM,73.4,60.8,65,30.26,10.0,East,9.2,-,N/A,,Scattered Clouds,100,2012-10-13 22:15:00
6:35 PM,73.4,60.8,65,30.26,10.0,East,4.6,-,N/A,,Clear,80,2012-10-13 22:35:00
6:55 PM,71.6,62.6,73,30.27,10.0,East,3.5,-,N/A,,Scattered Clouds,90,2012-10-13 22:55:00
7:15 PM,69.8,62.6,78,30.27,10.0,East,3.5,-,N/A,,Scattered Clouds,90,2012-10-13 23:15:00
7:35 PM,69.8,60.8,73,30.27,10.0,East,4.6,-,N/A,,Scattered Clouds,100,2012-10-13 23:35:00
8:55 PM,68.0,62.6,83,30.29,10.0,East,6.9,-,N/A,,Overcast,100,2012-10-14 00:55:00
9:15 PM,68.0,62.6,83,30.29,10.0,ESE,8.1,-,N/A,,Overcast,110,2012-10-14 01:15:00
9:35 PM,68.0,62.6,83,30.29,10.0,ESE,6.9,-,N/A,,Overcast,110,2012-10-14 01:35:00
10:15 PM,66.2,62.6,88,30.30,10.0,ESE,6.9,-,N/A,,Clear,110,2012-10-14 02:15:00
10:35 PM,64.4,62.6,94,30.30,10.0,ESE,6.9,-,N/A,,Scattered Clouds,110,2012-10-14 02:35:00
10:55 PM,64.4,62.6,94,30.30,10.0,ESE,5.8,-,N/A,,Clear,110,2012-10-14 02:55:00
11:15 PM,64.4,62.6,94,30.29,10.0,ESE,6.9,-,N/A,,Clear,110,2012-10-14 03:15:00
11:35 PM,64.4,60.8,88,30.29,10.0,East,5.8,-,N/A,,Clear,100,2012-10-14 03:35:00
11:55 PM,64.4,60.8,88,30.29,10.0,East,8.1,-,N/A,,Clear,100,2012-10-14 03:55:00